Time,TemperatureF,DewpointF,PressureIn,WindDirection,WindDirectionDegrees,WindSpeedMPH,WindSpeedGustMPH,Humidity,HourlyPrecipIn,Conditions,Clouds,dailyrainin,SoftwareType,DateUTC
2013-04-03 00:05:00,46.2,28.6,29.92,NE,46,0.0,0.0,50,0.00,,---,0.00,VWS V13.01,2013-04-03 06:05:00,
2013-04-03 00:10:00,46.0,28.9,29.92,NE,46,0.0,0.0,51,0.00,,---,0.00,VWS V13.01,2013-04-03 06:10:00,
2013-04-03 00:15:00,45.5,28.4,29.90,NE,46,0.0,0.0,51,0.00,,---,0.00,VWS V13.01,2013-04-03 06:15:00,
2013-04-03 00:21:00,44.9,28.4,29.90,ENE,73,0.0,0.0,52,0.00,,---,0.00,VWS V13.01,2013-04-03 06:21:00,
2013-04-03 00:26:00,44.3,28.7,29.90,ENE,73,0.0,0.0,54,0.00,,---,0.00,VWS V13.01,2013-04-03 06:26:00,
2013-04-03 00:31:00,43.8,28.7,29.91,ENE,73,0.0,0.0,55,0.00,,---,0.00,VWS V13.01,2013-04-03 06:31:00,
2013-04-03 00:37:00,43.5,28.4,29.91,ENE,73,0.0,0.0,55,0.00,,---,0.00,VWS V13.01,2013-04-03 06:37:00,
2013-04-03 00:42:00,43.2,28.6,29.91,ENE,73,0.0,1.0,56,0.00,,---,0.00,VWS V13.01,2013-04-03 06:42:00,
2013-04-03 00:47:00,43.1,28.0,29.92,ENE,73,0.0,0.0,55,0.00,,---,0.00,VWS V13.01,2013-04-03 06:47:00,
2013-04-03 00:52:00,43.1,28.5,29.92,ENE,73,0.0,0.0,56,0.00,,---,0.00,VWS V13.01,2013-04-03 06:52:00,
2013-04-03 00:58:00,42.9,28.3,29.92,ENE,73,0.0,0.0,56,0.00,,---,0.00,VWS V13.01,2013-04-03 06:58:00,
2013-04-03 01:03:00,42.8,28.2,29.92,ENE,73,0.0,0.0,56,0.00,,---,0.00,VWS V13.01,2013-04-03 07:03:00,
2013-04-03 01:08:00,42.6,28.9,29.92,ENE,73,0.0,0.0,58,0.00,,---,0.00,VWS V13.01,2013-04-03 07:08:00,
2013-04-03 01:13:00,42.6,28.9,29.92,ENE,73,0.0,0.0,58,0.00,,---,0.00,VWS V13.01,2013-04-03 07:13:00,
2013-04-03 01:18:00,42.5,28.4,29.90,ENE,73,0.0,0.0,57,0.00,,---,0.00,VWS V13.01,2013-04-03 07:18:00,
2013-04-03 01:23:00,42.1,28.8,29.90,ENE,73,0.0,0.0,59,0.00,,---,0.00,VWS V13.01,2013-04-03 07:23:00,
2013-04-03 01:28:00,41.8,28.5,29.90,ENE,73,0.0,0.0,59,0.00,,---,0.00,VWS V13.01,2013-04-03 07:28:00,
2013-04-03 01:33:00,41.8,28.5,29.90,ENE,73,0.0,0.0,59,0.00,,---,0.00,VWS V13.01,2013-04-03 07:33:00,
2013-04-03 01:39:00,41.9,28.6,29.90,ENE,73,0.0,0.0,59,0.00,,---,0.00,VWS V13.01,2013-04-03 07:39:00,
2013-04-03 01:44:00,42.1,28.8,29.90,ENE,73,0.0,0.0,59,0.00,,---,0.00,VWS V13.01,2013-04-03 07:44:00,
2013-04-03 01:49:00,42.3,29.0,29.90,ENE,73,0.0,0.0,59,0.00,,---,0.00,VWS V13.01,2013-04-03 07:49:00,
2013-04-03 01:54:00,42.5,28.8,29.90,East,84,0.0,3.0,58,0.00,,---,0.00,VWS V13.01,2013-04-03 07:54:00,
2013-04-03 02:00:00,43.3,29.1,29.90,East,84,0.0,0.0,57,0.00,,---,0.00,VWS V13.01,2013-04-03 08:00:00,
2013-04-03 02:05:00,43.9,28.8,29.89,East,84,0.0,0.0,55,0.00,,---,0.00,VWS V13.01,2013-04-03 08:05:00,
2013-04-03 02:10:00,44.2,29.1,29.89,East,84,0.0,0.0,55,0.00,,---,0.00,VWS V13.01,2013-04-03 08:10:00,
2013-04-03 02:16:00,44.3,29.2,29.86,East,84,0.0,0.0,55,0.00,,---,0.00,VWS V13.01,2013-04-03 08:16:00,
2013-04-03 02:21:00,44.1,29.0,29.86,East,89,0.0,2.0,55,0.00,,---,0.00,VWS V13.01,2013-04-03 08:21:00,
2013-04-03 02:26:00,43.8,28.7,29.86,NE,49,0.0,3.0,55,0.00,,---,0.00,VWS V13.01,2013-04-03 08:26:00,
2013-04-03 02:32:00,43.6,28.5,29.87,ENE,72,0.0,0.0,55,0.00,,---,0.00,VWS V13.01,2013-04-03 08:32:00,
2013-04-03 02:37:00,43.9,28.8,29.87,NNE,13,0.0,1.0,55,0.00,,---,0.00,VWS V13.01,2013-04-03 08:37:00,
2013-04-03 02:42:00,44.6,29.0,29.87,NE,49,0.0,0.0,54,0.00,,---,0.00,VWS V13.01,2013-04-03 08:42:00,
2013-04-03 02:47:00,45.2,29.1,29.88,NE,46,0.0,0.0,53,0.00,,---,0.00,VWS V13.01,2013-04-03 08:47:00,
2013-04-03 02:52:00,45.5,29.4,29.88,WNW,298,0.0,0.0,53,0.00,,---,0.00,VWS V13.01,2013-04-03 08:52:00,
2013-04-03 02:58:00,45.8,29.7,29.88,NW,304,0.0,0.0,53,0.00,,---,0.00,VWS V13.01,2013-04-03 08:58:00,
2013-04-03 03:03:00,46.1,29.5,29.87,ENE,76,0.0,3.0,52,0.00,,---,0.00,VWS V13.01,2013-04-03 09:03:00,
2013-04-03 03:08:00,46.2,29.6,29.87,NE,46,0.0,0.0,52,0.00,,---,0.00,VWS V13.01,2013-04-03 09:08:00,
2013-04-03 03:13:00,46.4,29.8,29.87,ENE,60,0.0,1.0,52,0.00,,---,0.00,VWS V13.01,2013-04-03 09:13:00,
2013-04-03 03:19:00,46.2,29.6,29.89,ENE,59,0.0,0.0,52,0.00,,---,0.00,VWS V13.01,2013-04-03 09:19:00,
2013-04-03 03:24:00,46.1,29.9,29.89,ENE,60,0.0,0.0,53,0.00,,---,0.00,VWS V13.01,2013-04-03 09:24:00,
2013-04-03 03:29:00,46.0,29.8,29.89,NE,53,0.0,1.0,53,0.00,,---,0.00,VWS V13.01,2013-04-03 09:29:00,
2013-04-03 03:34:00,45.8,29.7,29.89,East,94,0.0,0.0,53,0.00,,---,0.00,VWS V13.01,2013-04-03 09:34:00,
2013-04-03 03:39:00,46.0,29.8,29.89,SE,134,0.0,0.0,53,0.00,,---,0.00,VWS V13.01,2013-04-03 09:39:00,
2013-04-03 03:44:00,46.0,29.8,29.89,ESE,105,0.0,1.0,53,0.00,,---,0.00,VWS V13.01,2013-04-03 09:44:00,
2013-04-03 03:50:00,46.1,29.5,29.89,NE,41,3.0,6.0,52,0.00,,---,0.00,VWS V13.01,2013-04-03 09:50:00,
2013-04-03 03:55:00,46.4,29.3,29.89,NE,51,1.0,4.0,51,0.00,,---,0.00,VWS V13.01,2013-04-03 09:55:00,
2013-04-03 04:00:00,46.7,29.5,29.89,NNW,345,3.0,3.0,51,0.00,,---,0.00,VWS V13.01,2013-04-03 10:00:00,
2013-04-03 04:05:00,47.0,29.8,29.87,North,10,0.0,0.0,51,0.00,,---,0.00,VWS V13.01,2013-04-03 10:05:00,
2013-04-03 04:10:00,46.8,29.6,29.87,NNE,22,0.0,1.0,51,0.00,,---,0.00,VWS V13.01,2013-04-03 10:10:00,
2013-04-03 04:15:00,46.7,30.0,29.88,East,84,0.0,3.0,52,0.00,,---,0.00,VWS V13.01,2013-04-03 10:15:00,
2013-04-03 04:20:00,46.4,29.8,29.88,East,84,0.0,1.0,52,0.00,,---,0.00,VWS V13.01,2013-04-03 10:20:00,
2013-04-03 04:26:00,46.1,29.9,29.88,East,84,0.0,1.0,53,0.00,,---,0.00,VWS V13.01,2013-04-03 10:26:00,
2013-04-03 04:31:00,46.0,29.8,29.89,North,9,0.0,4.0,53,0.00,,---,0.00,VWS V13.01,2013-04-03 10:31:00,
2013-04-03 04:36:00,46.1,29.9,29.89,East,84,0.0,2.0,53,0.00,,---,0.00,VWS V13.01,2013-04-03 10:36:00,
2013-04-03 04:41:00,46.2,30.0,29.89,NNE,30,3.0,5.0,53,0.00,,---,0.00,VWS V13.01,2013-04-03 10:41:00,
2013-04-03 04:46:00,46.2,30.5,29.90,North,350,0.0,4.0,54,0.00,,---,0.00,VWS V13.01,2013-04-03 10:46:00,
2013-04-03 04:51:00,46.2,30.0,29.90,NE,55,0.0,1.0,53,0.00,,---,0.00,VWS V13.01,2013-04-03 10:51:00,
2013-04-03 04:56:00,46.0,30.3,29.90,ENE,61,1.0,2.0,54,0.00,,---,0.00,VWS V13.01,2013-04-03 10:56:00,
2013-04-03 05:02:00,45.8,30.1,29.91,ENE,57,0.0,0.0,54,0.00,,---,0.00,VWS V13.01,2013-04-03 11:02:00,
2013-04-03 05:07:00,45.7,30.0,29.91,ENE,57,0.0,0.0,54,0.00,,---,0.00,VWS V13.01,2013-04-03 11:07:00,
2013-04-03 05:12:00,45.4,30.2,29.91,ENE,57,0.0,0.0,55,0.00,,---,0.00,VWS V13.01,2013-04-03 11:12:00,
2013-04-03 05:17:00,45.1,29.9,29.93,ENE,57,0.0,1.0,55,0.00,,---,0.00,VWS V13.01,2013-04-03 11:17:00,
2013-04-03 05:22:00,44.8,29.6,29.93,ENE,57,0.0,0.0,55,0.00,,---,0.00,VWS V13.01,2013-04-03 11:22:00,
2013-04-03 05:28:00,44.6,29.9,29.93,ENE,57,0.0,0.0,56,0.00,,---,0.00,VWS V13.01,2013-04-03 11:28:00,
2013-04-03 05:33:00,44.5,30.2,29.93,ENE,57,0.0,0.0,57,0.00,,---,0.00,VWS V13.01,2013-04-03 11:33:00,
2013-04-03 05:38:00,44.3,30.0,29.93,ENE,57,0.0,0.0,57,0.00,,---,0.00,VWS V13.01,2013-04-03 11:38:00,
2013-04-03 05:44:00,44.2,30.0,29.93,ENE,57,0.0,0.0,57,0.00,,---,0.00,VWS V13.01,2013-04-03 11:44:00,
2013-04-03 05:49:00,44.1,30.3,29.95,ENE,57,0.0,0.0,58,0.00,,---,0.00,VWS V13.01,2013-04-03 11:49:00,
2013-04-03 05:54:00,43.9,30.1,29.95,NNE,32,0.0,3.0,58,0.00,,---,0.00,VWS V13.01,2013-04-03 11:54:00,
2013-04-03 05:59:00,43.9,30.1,29.95,NNE,32,0.0,0.0,58,0.00,,---,0.00,VWS V13.01,2013-04-03 11:59:00,
2013-04-03 06:04:00,44.1,30.3,29.95,NNE,32,0.0,0.0,58,0.00,,---,0.00,VWS V13.01,2013-04-03 12:04:00,
2013-04-03 06:09:00,43.9,30.1,29.95,NNE,32,0.0,0.0,58,0.00,,---,0.00,VWS V13.01,2013-04-03 12:09:00,
2013-04-03 06:15:00,43.9,30.5,29.95,NNE,32,0.0,0.0,59,0.00,,---,0.00,VWS V13.01,2013-04-03 12:15:00,
2013-04-03 06:20:00,43.8,30.4,29.97,NNE,32,0.0,0.0,59,0.00,,---,0.00,VWS V13.01,2013-04-03 12:20:00,
2013-04-03 06:25:00,43.6,30.2,29.97,NNE,32,0.0,0.0,59,0.00,,---,0.00,VWS V13.01,2013-04-03 12:25:00,
2013-04-03 06:30:00,43.8,30.4,29.98,East,84,1.0,2.0,59,0.00,,---,0.00,VWS V13.01,2013-04-03 12:30:00,
2013-04-03 06:36:00,43.9,30.1,29.98,East,80,0.0,2.0,58,0.00,,---,0.00,VWS V13.01,2013-04-03 12:36:00,
2013-04-03 06:41:00,44.1,30.3,29.98,East,80,0.0,1.0,58,0.00,,---,0.00,VWS V13.01,2013-04-03 12:41:00,
2013-04-03 06:46:00,44.1,30.3,29.98,NE,54,0.0,3.0,58,0.00,,---,0.00,VWS V13.01,2013-04-03 12:46:00,
2013-04-03 06:51:00,44.1,30.3,29.98,North,355,0.0,1.0,58,0.00,,---,0.00,VWS V13.01,2013-04-03 12:51:00,
2013-04-03 06:56:00,43.9,30.1,29.98,East,97,0.0,1.0,58,0.00,,---,0.00,VWS V13.01,2013-04-03 12:56:00,
2013-04-03 07:01:00,43.9,30.1,29.98,East,97,0.0,0.0,58,0.00,,---,0.00,VWS V13.01,2013-04-03 13:01:00,
2013-04-03 07:06:00,43.9,30.5,29.98,East,95,0.0,2.0,59,0.00,,---,0.00,VWS V13.01,2013-04-03 13:06:00,
2013-04-03 07:11:00,43.8,30.4,29.98,East,95,0.0,1.0,59,0.00,,---,0.00,VWS V13.01,2013-04-03 13:11:00,
2013-04-03 07:16:00,43.8,30.4,30.01,East,95,0.0,0.0,59,0.00,,---,0.00,VWS V13.01,2013-04-03 13:16:00,
2013-04-03 07:21:00,43.8,30.4,30.01,East,95,0.0,0.0,59,0.00,,---,0.00,VWS V13.01,2013-04-03 13:21:00,
2013-04-03 07:27:00,43.8,30.4,30.01,East,95,0.0,0.0,59,0.00,,---,0.00,VWS V13.01,2013-04-03 13:27:00,
2013-04-03 07:32:00,43.9,30.9,30.02,East,95,0.0,0.0,60,0.00,,---,0.00,VWS V13.01,2013-04-03 13:32:00,
2013-04-03 07:37:00,43.9,30.9,30.02,East,95,0.0,0.0,60,0.00,,---,0.00,VWS V13.01,2013-04-03 13:37:00,
2013-04-03 07:42:00,43.9,30.5,30.02,East,95,0.0,0.0,59,0.00,,---,0.00,VWS V13.01,2013-04-03 13:42:00,
2013-04-03 07:47:00,44.1,31.1,30.02,East,95,0.0,0.0,60,0.00,,---,0.00,VWS V13.01,2013-04-03 13:47:00,
2013-04-03 07:52:00,44.5,31.1,30.02,East,95,0.0,0.0,59,0.00,,---,0.00,VWS V13.01,2013-04-03 13:52:00,
2013-04-03 07:58:00,44.6,31.6,30.02,East,95,0.0,0.0,60,0.00,,---,0.00,VWS V13.01,2013-04-03 13:58:00,
2013-04-03 08:03:00,44.9,31.0,30.02,East,95,0.0,0.0,58,0.00,,---,0.00,VWS V13.01,2013-04-03 14:03:00,
2013-04-03 08:08:00,45.4,30.6,30.02,NW,326,0.0,4.0,56,0.00,,---,0.00,VWS V13.01,2013-04-03 14:08:00,
2013-04-03 08:13:00,46.1,30.4,30.02,East,90,0.0,1.0,54,0.00,,---,0.00,VWS V13.01,2013-04-03 14:13:00,
2013-04-03 08:18:00,46.7,30.5,30.03,NE,41,0.0,3.0,53,0.00,,---,0.00,VWS V13.01,2013-04-03 14:18:00,
2013-04-03 08:24:00,47.0,30.8,30.03,NE,34,0.0,4.0,53,0.00,,---,0.00,VWS V13.01,2013-04-03 14:24:00,
2013-04-03 08:29:00,47.4,30.7,30.03,NNW,345,3.0,4.0,52,0.00,,---,0.00,VWS V13.01,2013-04-03 14:29:00,
2013-04-03 08:34:00,47.7,30.5,30.03,NNW,336,3.0,4.0,51,0.00,,---,0.00,VWS V13.01,2013-04-03 14:34:00,
2013-04-03 08:39:00,48.0,30.8,30.03,North,360,2.0,3.0,51,0.00,,---,0.00,VWS V13.01,2013-04-03 14:39:00,
2013-04-03 08:45:00,48.3,30.5,30.03,NW,317,0.0,5.0,50,0.00,,---,0.00,VWS V13.01,2013-04-03 14:45:00,
2013-04-03 08:50:00,48.6,30.3,30.02,ENE,62,0.0,6.0,49,0.00,,---,0.00,VWS V13.01,2013-04-03 14:50:00,
2013-04-03 08:55:00,48.8,30.5,30.02,ENE,67,0.0,8.0,49,0.00,,---,0.00,VWS V13.01,2013-04-03 14:55:00,
2013-04-03 09:00:00,49.1,30.8,30.02,North,355,5.0,7.0,49,0.00,,---,0.00,VWS V13.01,2013-04-03 15:00:00,
2013-04-03 09:06:00,49.2,29.9,30.02,West,281,0.0,6.0,47,0.00,,---,0.00,VWS V13.01,2013-04-03 15:06:00,
2013-04-03 09:11:00,49.4,30.0,30.02,NNE,19,3.0,6.0,47,0.00,,---,0.00,VWS V13.01,2013-04-03 15:11:00,
2013-04-03 09:16:00,49.5,30.1,30.03,ENE,71,0.0,7.0,47,0.00,,---,0.00,VWS V13.01,2013-04-03 15:16:00,
2013-04-03 09:21:00,49.6,30.2,30.03,NNE,22,0.0,3.0,47,0.00,,---,0.00,VWS V13.01,2013-04-03 15:21:00,
2013-04-03 09:26:00,49.6,29.7,30.03,NE,44,0.0,5.0,46,0.00,,---,0.00,VWS V13.01,2013-04-03 15:26:00,
2013-04-03 09:31:00,49.8,29.9,30.03,NE,40,1.0,4.0,46,0.00,,---,0.00,VWS V13.01,2013-04-03 15:31:00,
2013-04-03 09:36:00,49.8,29.9,30.03,North,360,0.0,6.0,46,0.00,,---,0.00,VWS V13.01,2013-04-03 15:36:00,
2013-04-03 09:41:00,49.8,29.3,30.03,NNE,12,3.0,11.0,45,0.00,,---,0.00,VWS V13.01,2013-04-03 15:41:00,
2013-04-03 09:46:00,49.8,29.3,30.02,NNW,348,0.0,10.0,45,0.00,,---,0.00,VWS V13.01,2013-04-03 15:46:00,
2013-04-03 09:51:00,49.9,28.9,30.02,ENE,73,5.0,10.0,44,0.00,,---,0.00,VWS V13.01,2013-04-03 15:51:00,
2013-04-03 09:56:00,50.1,29.0,30.02,NNE,17,0.0,7.0,44,0.00,,---,0.00,VWS V13.01,2013-04-03 15:56:00,
2013-04-03 10:01:00,50.2,28.6,30.03,NNW,346,1.0,7.0,43,0.00,,---,0.00,VWS V13.01,2013-04-03 16:01:00,
2013-04-03 10:06:00,50.2,28.6,30.03,WNW,293,1.0,3.0,43,0.00,,---,0.00,VWS V13.01,2013-04-03 16:06:00,
2013-04-03 10:12:00,50.4,28.8,30.03,West,266,1.0,2.0,43,0.00,,---,0.00,VWS V13.01,2013-04-03 16:12:00,
2013-04-03 10:17:00,50.8,29.1,30.05,NE,44,1.0,4.0,43,0.00,,---,0.00,VWS V13.01,2013-04-03 16:17:00,
2013-04-03 10:22:00,51.0,28.1,30.05,NW,319,3.0,7.0,41,0.00,,---,0.00,VWS V13.01,2013-04-03 16:22:00,
2013-04-03 10:27:00,51.1,28.2,30.05,WSW,246,0.0,4.0,41,0.00,,---,0.00,VWS V13.01,2013-04-03 16:27:00,
2013-04-03 10:33:00,51.0,28.1,30.05,East,90,0.0,1.0,41,0.00,,---,0.00,VWS V13.01,2013-04-03 16:33:00,
2013-04-03 10:38:00,51.0,28.1,30.05,East,100,0.0,1.0,41,0.00,,---,0.00,VWS V13.01,2013-04-03 16:38:00,
2013-04-03 10:43:00,51.0,28.1,30.05,East,100,0.0,0.0,41,0.00,,---,0.00,VWS V13.01,2013-04-03 16:43:00,
2013-04-03 10:49:00,51.1,28.2,30.05,East,94,0.0,0.0,41,0.00,,---,0.00,VWS V13.01,2013-04-03 16:49:00,
2013-04-03 10:55:00,52.2,26.1,30.05,NE,34,0.0,5.0,36,0.00,,---,0.00,VWS V13.01,2013-04-03 16:55:00,
2013-04-03 11:00:00,53.1,26.9,30.05,NNE,13,0.0,4.0,36,0.00,,---,0.00,VWS V13.01,2013-04-03 17:00:00,
2013-04-03 11:06:00,53.1,26.2,30.05,ENE,72,1.0,3.0,35,0.00,,---,0.00,VWS V13.01,2013-04-03 17:06:00,
2013-04-03 11:11:00,52.6,27.1,30.05,South,183,0.0,4.0,37,0.00,,---,0.00,VWS V13.01,2013-04-03 17:11:00,
2013-04-03 11:16:00,52.2,28.0,30.03,East,82,1.0,5.0,39,0.00,,---,0.00,VWS V13.01,2013-04-03 17:16:00,
2013-04-03 11:21:00,52.2,26.7,30.03,East,94,0.0,10.0,37,0.00,,---,0.00,VWS V13.01,2013-04-03 17:21:00,
2013-04-03 11:26:00,52.5,26.3,30.03,NE,46,0.0,6.0,36,0.00,,---,0.00,VWS V13.01,2013-04-03 17:26:00,
2013-04-03 11:31:00,53.1,26.2,30.03,NNE,32,0.0,3.0,35,0.00,,---,0.00,VWS V13.01,2013-04-03 17:31:00,
2013-04-03 11:36:00,53.2,27.0,30.03,North,355,6.0,6.0,36,0.00,,---,0.00,VWS V13.01,2013-04-03 17:36:00,
2013-04-03 11:42:00,53.6,26.6,30.03,East,80,0.0,1.0,35,0.00,,---,0.00,VWS V13.01,2013-04-03 17:42:00,
2013-04-03 11:47:00,53.8,26.1,30.02,NW,310,1.0,5.0,34,0.00,,---,0.00,VWS V13.01,2013-04-03 17:47:00,
2013-04-03 11:52:00,53.6,26.6,30.02,NNW,339,3.0,3.0,35,0.00,,---,0.00,VWS V13.01,2013-04-03 17:52:00,
2013-04-03 11:57:00,53.8,26.8,30.02,NNE,30,0.0,2.0,35,0.00,,---,0.00,VWS V13.01,2013-04-03 17:57:00,
2013-04-03 12:03:00,54.1,26.4,30.02,NNE,33,0.0,3.0,34,0.00,,---,0.00,VWS V13.01,2013-04-03 18:03:00,
2013-04-03 12:08:00,54.5,26.0,30.02,NE,45,2.0,4.0,33,0.00,,---,0.00,VWS V13.01,2013-04-03 18:08:00,
2013-04-03 12:13:00,54.8,25.5,30.02,SW,221,2.0,4.0,32,0.00,,---,0.00,VWS V13.01,2013-04-03 18:13:00,
2013-04-03 12:19:00,54.8,26.3,30.03,NE,43,1.0,2.0,33,0.00,,---,0.00,VWS V13.01,2013-04-03 18:19:00,
2013-04-03 12:24:00,55.0,26.5,30.03,WSW,244,2.0,5.0,33,0.00,,---,0.00,VWS V13.01,2013-04-03 18:24:00,
2013-04-03 12:29:00,54.8,27.0,30.03,NNW,344,0.0,3.0,34,0.00,,---,0.00,VWS V13.01,2013-04-03 18:29:00,
2013-04-03 12:35:00,55.1,25.8,30.03,NNW,335,0.0,3.0,32,0.00,,---,0.00,VWS V13.01,2013-04-03 18:35:00,
2013-04-03 12:40:00,55.3,26.0,30.03,WSW,252,0.0,4.0,32,0.00,,---,0.00,VWS V13.01,2013-04-03 18:40:00,
2013-04-03 12:46:00,55.7,27.1,30.02,North,5,0.0,3.0,33,0.00,,---,0.00,VWS V13.01,2013-04-03 18:46:00,
2013-04-03 12:51:00,56.2,26.0,30.02,West,263,1.0,7.0,31,0.00,,---,0.00,VWS V13.01,2013-04-03 18:51:00,
2013-04-03 12:56:00,56.5,26.2,30.02,NE,47,1.0,4.0,31,0.00,,---,0.00,VWS V13.01,2013-04-03 18:56:00,
2013-04-03 13:01:00,56.7,24.8,30.01,WNW,282,0.0,7.0,29,0.00,,---,0.00,VWS V13.01,2013-04-03 19:01:00,
2013-04-03 13:06:00,56.6,24.7,30.01,SSW,201,1.0,6.0,29,0.00,,---,0.00,VWS V13.01,2013-04-03 19:06:00,
2013-04-03 13:11:00,56.9,25.8,30.01,NNW,346,2.0,3.0,30,0.00,,---,0.00,VWS V13.01,2013-04-03 19:11:00,
2013-04-03 13:17:00,57.6,24.8,30.01,NE,53,1.0,4.0,28,0.00,,---,0.00,VWS V13.01,2013-04-03 19:17:00,
2013-04-03 13:23:00,57.8,24.9,30.01,SW,225,0.0,5.0,28,0.00,,---,0.00,VWS V13.01,2013-04-03 19:23:00,
2013-04-03 13:28:00,57.3,24.5,30.01,WNW,283,0.0,10.0,28,0.00,,---,0.00,VWS V13.01,2013-04-03 19:28:00,
2013-04-03 13:34:00,57.0,23.4,30.01,West,265,1.0,4.0,27,0.00,,---,0.00,VWS V13.01,2013-04-03 19:34:00,
2013-04-03 13:39:00,57.0,24.2,30.01,WSW,254,1.0,6.0,28,0.00,,---,0.00,VWS V13.01,2013-04-03 19:39:00,
2013-04-03 13:45:00,57.5,23.8,30.01,WSW,256,0.0,7.0,27,0.00,,---,0.00,VWS V13.01,2013-04-03 19:45:00,
2013-04-03 13:50:00,56.5,29.9,30.00,WSW,247,4.0,9.0,36,0.00,,---,0.00,VWS V13.01,2013-04-03 19:50:00,
2013-04-03 13:55:00,54.2,31.0,30.00,WSW,238,1.0,5.0,41,0.00,,---,0.00,VWS V13.01,2013-04-03 19:55:00,
2013-04-03 14:00:00,53.3,30.2,30.00,WSW,241,0.0,5.0,41,0.00,,---,0.00,VWS V13.01,2013-04-03 20:00:00,
2013-04-03 14:06:00,52.9,30.5,30.03,WNW,284,0.0,4.0,42,0.00,,---,0.00,VWS V13.01,2013-04-03 20:06:00,
2013-04-03 14:11:00,52.8,30.4,30.03,West,273,0.0,3.0,42,0.00,,---,0.00,VWS V13.01,2013-04-03 20:11:00,
2013-04-03 14:17:00,52.6,30.8,30.02,West,268,0.0,0.0,43,0.00,,---,0.00,VWS V13.01,2013-04-03 20:17:00,
2013-04-03 14:22:00,52.8,30.9,30.02,SW,227,2.0,2.0,43,0.00,,---,0.00,VWS V13.01,2013-04-03 20:22:00,
2013-04-03 14:27:00,52.9,30.5,30.02,SE,142,1.0,1.0,42,0.00,,---,0.00,VWS V13.01,2013-04-03 20:27:00,
2013-04-03 14:32:00,52.9,30.5,30.02,ENE,62,1.0,1.0,42,0.00,,---,0.00,VWS V13.01,2013-04-03 20:32:00,
2013-04-03 14:37:00,53.1,31.2,30.02,ESE,109,0.0,3.0,43,0.00,,---,0.00,VWS V13.01,2013-04-03 20:37:00,
2013-04-03 14:43:00,53.5,31.0,30.02,North,355,1.0,6.0,42,0.00,,---,0.00,VWS V13.01,2013-04-03 20:43:00,
2013-04-03 14:48:00,53.2,30.7,30.00,South,189,1.0,4.0,42,0.00,,---,0.00,VWS V13.01,2013-04-03 20:48:00,
2013-04-03 14:53:00,52.9,31.0,30.00,WSW,240,0.0,1.0,43,0.00,,---,0.00,VWS V13.01,2013-04-03 20:53:00,
2013-04-03 14:58:00,53.2,31.3,30.00,SW,219,0.0,2.0,43,0.00,,---,0.00,VWS V13.01,2013-04-03 20:58:00,
2013-04-03 15:04:00,53.9,30.8,30.01,South,171,1.0,1.0,41,0.00,,---,0.00,VWS V13.01,2013-04-03 21:04:00,
2013-04-03 15:09:00,54.7,30.9,30.01,NE,36,3.0,5.0,40,0.00,,---,0.00,VWS V13.01,2013-04-03 21:09:00,
2013-04-03 15:14:00,54.8,31.0,30.01,WNW,290,1.0,5.0,40,0.00,,---,0.00,VWS V13.01,2013-04-03 21:14:00,
2013-04-03 15:20:00,55.3,30.8,29.99,NW,307,0.0,3.0,39,0.00,,---,0.00,VWS V13.01,2013-04-03 21:20:00,
2013-04-03 15:25:00,55.6,29.8,29.99,North,5,0.0,1.0,37,0.00,,---,0.00,VWS V13.01,2013-04-03 21:25:00,
2013-04-03 15:31:00,55.6,31.1,29.99,WSW,246,2.0,2.0,39,0.00,,---,0.00,VWS V13.01,2013-04-03 21:31:00,
2013-04-03 15:36:00,55.1,30.6,29.99,West,269,0.0,3.0,39,0.00,,---,0.00,VWS V13.01,2013-04-03 21:36:00,
2013-04-03 15:41:00,55.1,31.8,29.99,WSW,240,0.0,4.0,41,0.00,,---,0.00,VWS V13.01,2013-04-03 21:41:00,
2013-04-03 15:46:00,55.1,30.0,29.98,East,84,0.0,1.0,38,0.00,,---,0.00,VWS V13.01,2013-04-03 21:46:00,
2013-04-03 15:52:00,55.1,30.0,29.98,ENE,71,0.0,0.0,38,0.00,,---,0.00,VWS V13.01,2013-04-03 21:52:00,
2013-04-03 15:57:00,55.4,29.6,29.98,West,280,0.0,0.0,37,0.00,,---,0.00,VWS V13.01,2013-04-03 21:57:00,
2013-04-03 16:02:00,55.6,29.8,29.98,WSW,251,1.0,2.0,37,0.00,,---,0.00,VWS V13.01,2013-04-03 22:02:00,
2013-04-03 16:07:00,55.9,30.7,29.98,North,355,0.0,3.0,38,0.00,,---,0.00,VWS V13.01,2013-04-03 22:07:00,
2013-04-03 16:13:00,56.6,29.3,29.98,SW,228,0.0,1.0,35,0.00,,---,0.00,VWS V13.01,2013-04-03 22:13:00,
2013-04-03 16:18:00,56.9,28.1,29.96,NNW,343,1.0,1.0,33,0.00,,---,0.00,VWS V13.01,2013-04-03 22:18:00,
2013-04-03 16:23:00,57.0,28.9,29.96,West,278,0.0,4.0,34,0.00,,---,0.00,VWS V13.01,2013-04-03 22:23:00,
2013-04-03 16:29:00,56.9,28.8,29.96,West,259,0.0,3.0,34,0.00,,---,0.00,VWS V13.01,2013-04-03 22:29:00,
2013-04-03 16:34:00,57.3,29.2,29.96,NW,326,0.0,1.0,34,0.00,,---,0.00,VWS V13.01,2013-04-03 22:34:00,
2013-04-03 16:39:00,56.9,28.1,29.96,WSW,246,0.0,2.0,33,0.00,,---,0.00,VWS V13.01,2013-04-03 22:39:00,
2013-04-03 16:44:00,56.3,29.0,29.96,WSW,245,0.0,2.0,35,0.00,,---,0.00,VWS V13.01,2013-04-03 22:44:00,
2013-04-03 16:50:00,56.0,28.0,29.96,WSW,245,0.0,1.0,34,0.00,,---,0.00,VWS V13.01,2013-04-03 22:50:00,
2013-04-03 16:55:00,56.0,28.8,29.96,NW,317,0.0,1.0,35,0.00,,---,0.00,VWS V13.01,2013-04-03 22:55:00,
2013-04-03 17:00:00,55.9,28.7,29.96,NW,317,0.0,1.0,35,0.00,,---,0.00,VWS V13.01,2013-04-03 23:00:00,
2013-04-03 17:05:00,55.7,29.2,29.95,NNE,31,0.0,1.0,36,0.00,,---,0.00,VWS V13.01,2013-04-03 23:05:00,
2013-04-03 17:10:00,55.4,28.9,29.95,WSW,251,0.0,4.0,36,0.00,,---,0.00,VWS V13.01,2013-04-03 23:10:00,
2013-04-03 17:16:00,55.3,29.5,29.97,NNE,25,0.0,1.0,37,0.00,,---,0.00,VWS V13.01,2013-04-03 23:16:00,
2013-04-03 17:21:00,55.3,29.5,29.97,NW,326,0.0,1.0,37,0.00,,---,0.00,VWS V13.01,2013-04-03 23:21:00,
2013-04-03 17:26:00,54.8,29.0,29.97,NW,326,0.0,2.0,37,0.00,,---,0.00,VWS V13.01,2013-04-03 23:26:00,
2013-04-03 17:31:00,54.5,28.1,29.97,NW,325,0.0,2.0,36,0.00,,---,0.00,VWS V13.01,2013-04-03 23:31:00,
2013-04-03 17:36:00,54.4,28.7,29.97,WSW,254,0.0,3.0,37,0.00,,---,0.00,VWS V13.01,2013-04-03 23:36:00,
2013-04-03 17:41:00,54.1,28.4,29.97,West,265,0.0,1.0,37,0.00,,---,0.00,VWS V13.01,2013-04-03 23:41:00,
2013-04-03 17:47:00,53.9,29.5,29.98,West,265,0.0,0.0,39,0.00,,---,0.00,VWS V13.01,2013-04-03 23:47:00,
2013-04-03 17:52:00,53.8,30.1,29.98,West,265,0.0,0.0,40,0.00,,---,0.00,VWS V13.01,2013-04-03 23:52:00,
2013-04-03 17:57:00,53.9,31.4,29.98,West,265,0.0,0.0,42,0.00,,---,0.00,VWS V13.01,2013-04-03 23:57:00,
2013-04-03 18:03:00,53.9,30.1,29.97,West,265,0.0,0.0,40,0.00,,---,0.00,VWS V13.01,2013-04-04 00:03:00,
2013-04-03 18:08:00,53.9,28.9,29.97,West,265,0.0,0.0,38,0.00,,---,0.00,VWS V13.01,2013-04-04 00:08:00,
2013-04-03 18:13:00,53.9,28.9,29.97,West,265,0.0,1.0,38,0.00,,---,0.00,VWS V13.01,2013-04-04 00:13:00,
2013-04-03 18:19:00,53.9,28.9,29.97,West,265,0.0,0.0,38,0.00,,---,0.00,VWS V13.01,2013-04-04 00:19:00,
2013-04-03 18:24:00,53.9,28.9,29.97,West,265,0.0,0.0,38,0.00,,---,0.00,VWS V13.01,2013-04-04 00:24:00,
2013-04-03 18:30:00,53.9,29.5,29.97,West,265,0.0,0.0,39,0.00,,---,0.00,VWS V13.01,2013-04-04 00:30:00,
2013-04-03 18:35:00,53.9,30.1,29.97,West,265,0.0,0.0,40,0.00,,---,0.00,VWS V13.01,2013-04-04 00:35:00,
2013-04-03 18:40:00,53.8,29.4,29.97,West,265,0.0,0.0,39,0.00,,---,0.00,VWS V13.01,2013-04-04 00:40:00,
2013-04-03 18:45:00,53.8,29.4,29.97,West,265,0.0,0.0,39,0.00,,---,0.00,VWS V13.01,2013-04-04 00:45:00,
2013-04-03 18:50:00,53.8,30.1,29.97,West,265,0.0,0.0,40,0.00,,---,0.00,VWS V13.01,2013-04-04 00:50:00,
2013-04-03 18:55:00,53.6,29.3,29.97,West,265,0.0,0.0,39,0.00,,---,0.00,VWS V13.01,2013-04-04 00:55:00,
2013-04-03 19:00:00,53.5,29.8,29.97,WSW,254,0.0,2.0,40,0.00,,---,0.00,VWS V13.01,2013-04-04 01:00:00,
2013-04-03 19:06:00,53.2,28.9,29.97,WSW,252,0.0,1.0,39,0.00,,---,0.00,VWS V13.01,2013-04-04 01:06:00,
2013-04-03 19:11:00,52.9,28.6,29.97,WSW,252,0.0,0.0,39,0.00,,---,0.00,VWS V13.01,2013-04-04 01:11:00,
2013-04-03 19:16:00,52.8,29.8,29.97,WSW,252,0.0,0.0,41,0.00,,---,0.00,VWS V13.01,2013-04-04 01:16:00,
2013-04-03 19:21:00,52.5,29.5,29.97,WSW,252,0.0,0.0,41,0.00,,---,0.00,VWS V13.01,2013-04-04 01:21:00,
2013-04-03 19:27:00,52.0,29.6,29.97,WSW,252,0.0,0.0,42,0.00,,---,0.00,VWS V13.01,2013-04-04 01:27:00,
2013-04-03 19:32:00,51.4,29.7,29.98,WSW,252,0.0,0.0,43,0.00,,---,0.00,VWS V13.01,2013-04-04 01:32:00,
2013-04-03 19:37:00,50.8,29.1,29.98,WSW,252,0.0,0.0,43,0.00,,---,0.00,VWS V13.01,2013-04-04 01:37:00,
2013-04-03 19:43:00,50.1,29.6,29.98,WSW,252,0.0,0.0,45,0.00,,---,0.00,VWS V13.01,2013-04-04 01:43:00,
2013-04-03 19:48:00,49.5,30.1,29.99,WSW,252,0.0,0.0,47,0.00,,---,0.00,VWS V13.01,2013-04-04 01:48:00,
2013-04-03 19:53:00,48.8,30.0,29.99,WSW,252,0.0,0.0,48,0.00,,---,0.00,VWS V13.01,2013-04-04 01:53:00,
2013-04-03 19:59:00,48.0,29.8,29.99,WSW,252,0.0,0.0,49,0.00,,---,0.00,VWS V13.01,2013-04-04 01:59:00,
2013-04-03 20:04:00,47.3,30.1,30.00,WSW,252,0.0,0.0,51,0.00,,---,0.00,VWS V13.01,2013-04-04 02:04:00,
2013-04-03 20:09:00,46.5,29.4,30.00,WSW,252,0.0,0.0,51,0.00,,---,0.00,VWS V13.01,2013-04-04 02:09:00,
2013-04-03 20:15:00,45.7,29.6,30.00,WSW,252,0.0,0.0,53,0.00,,---,0.00,VWS V13.01,2013-04-04 02:15:00,
2013-04-03 20:20:00,45.2,29.1,29.99,WSW,252,0.0,0.0,53,0.00,,---,0.00,VWS V13.01,2013-04-04 02:20:00,
2013-04-03 20:25:00,44.8,29.2,29.99,WSW,252,0.0,0.0,54,0.00,,---,0.00,VWS V13.01,2013-04-04 02:25:00,
2013-04-03 20:30:00,44.2,29.1,29.99,WSW,242,0.0,0.0,55,0.00,,---,0.00,VWS V13.01,2013-04-04 02:30:00,
2013-04-03 20:35:00,43.6,29.0,29.99,WSW,240,0.0,1.0,56,0.00,,---,0.00,VWS V13.01,2013-04-04 02:35:00,
2013-04-03 20:41:00,43.5,28.9,29.99,SW,234,0.0,1.0,56,0.00,,---,0.00,VWS V13.01,2013-04-04 02:41:00,
2013-04-03 20:46:00,43.3,28.7,29.99,SW,234,0.0,1.0,56,0.00,,---,0.00,VWS V13.01,2013-04-04 02:46:00,
2013-04-03 20:51:00,43.5,28.4,29.99,SW,234,0.0,0.0,55,0.00,,---,0.00,VWS V13.01,2013-04-04 02:51:00,
2013-04-03 20:56:00,43.8,28.2,29.99,SW,234,0.0,0.0,54,0.00,,---,0.00,VWS V13.01,2013-04-04 02:56:00,
2013-04-03 21:02:00,43.8,28.2,29.99,SW,234,0.0,0.0,54,0.00,,---,0.00,VWS V13.01,2013-04-04 03:02:00,
2013-04-03 21:07:00,43.9,28.4,29.99,SW,234,0.0,0.0,54,0.00,,---,0.00,VWS V13.01,2013-04-04 03:07:00,
2013-04-03 21:12:00,43.8,28.2,29.99,SW,234,0.0,0.0,54,0.00,,---,0.00,VWS V13.01,2013-04-04 03:12:00,
2013-04-03 21:17:00,43.9,28.4,29.98,SW,234,0.0,0.0,54,0.00,,---,0.00,VWS V13.01,2013-04-04 03:17:00,
2013-04-03 21:22:00,43.8,28.2,29.98,SW,234,0.0,0.0,54,0.00,,---,0.00,VWS V13.01,2013-04-04 03:22:00,
2013-04-03 21:27:00,43.5,28.0,29.98,SW,216,0.0,1.0,54,0.00,,---,0.00,VWS V13.01,2013-04-04 03:27:00,
2013-04-03 21:33:00,43.3,28.2,29.99,ENE,71,0.0,0.0,55,0.00,,---,0.00,VWS V13.01,2013-04-04 03:33:00,
2013-04-03 21:38:00,43.3,28.7,29.99,ESE,110,0.0,1.0,56,0.00,,---,0.00,VWS V13.01,2013-04-04 03:38:00,
2013-04-03 21:44:00,43.3,28.7,29.99,ESE,110,0.0,1.0,56,0.00,,---,0.00,VWS V13.01,2013-04-04 03:44:00,
2013-04-03 21:49:00,43.1,28.5,30.00,ESE,110,0.0,1.0,56,0.00,,---,0.00,VWS V13.01,2013-04-04 03:49:00,
2013-04-03 21:55:00,42.8,28.6,30.00,ESE,110,0.0,1.0,57,0.00,,---,0.00,VWS V13.01,2013-04-04 03:55:00,
2013-04-03 22:00:00,42.3,28.2,30.00,ESE,110,0.0,0.0,57,0.00,,---,0.00,VWS V13.01,2013-04-04 04:00:00,
2013-04-03 22:01:00,42.3,28.6,30.00,ESE,110,0.0,0.0,58,0.00,,---,0.00,VWS V13.01,2013-04-04 04:01:00,
2013-04-03 22:02:00,42.2,28.5,30.00,ESE,110,0.0,0.0,58,0.00,,---,0.00,VWS V13.01,2013-04-04 04:02:00,
2013-04-03 22:03:00,42.2,28.5,30.00,ESE,110,0.0,0.0,58,0.00,,---,0.00,VWS V13.01,2013-04-04 04:03:00,
2013-04-03 22:08:00,41.9,28.6,30.00,ESE,110,0.0,0.0,59,0.00,,---,0.00,VWS V13.01,2013-04-04 04:08:00,
2013-04-03 22:13:00,41.8,28.5,30.00,ESE,110,0.0,0.0,59,0.00,,---,0.00,VWS V13.01,2013-04-04 04:13:00,
2013-04-03 22:19:00,41.6,28.4,30.00,ESE,110,0.0,1.0,59,0.00,,---,0.00,VWS V13.01,2013-04-04 04:19:00,
2013-04-03 22:24:00,41.6,28.4,30.00,ESE,110,0.0,0.0,59,0.00,,---,0.00,VWS V13.01,2013-04-04 04:24:00,
2013-04-03 22:30:00,41.5,28.3,30.00,ESE,110,0.0,1.0,59,0.00,,---,0.00,VWS V13.01,2013-04-04 04:30:00,
2013-04-03 22:35:00,41.5,28.3,29.99,ESE,110,0.0,1.0,59,0.00,,---,0.00,VWS V13.01,2013-04-04 04:35:00,
2013-04-03 22:40:00,41.3,28.1,29.99,ESE,110,0.0,0.0,59,0.00,,---,0.00,VWS V13.01,2013-04-04 04:40:00,
2013-04-03 22:45:00,41.3,28.1,29.99,ESE,110,0.0,1.0,59,0.00,,---,0.00,VWS V13.01,2013-04-04 04:45:00,
2013-04-03 22:50:00,41.5,28.3,29.99,ESE,110,0.0,1.0,59,0.00,,---,0.00,VWS V13.01,2013-04-04 04:50:00,
2013-04-03 22:55:00,41.5,28.3,29.99,ESE,110,0.0,1.0,59,0.00,,---,0.00,VWS V13.01,2013-04-04 04:55:00,
2013-04-03 23:00:00,41.3,28.1,30.00,ESE,110,0.0,0.0,59,0.00,,---,0.00,VWS V13.01,2013-04-04 05:00:00,
2013-04-03 23:05:00,41.3,28.1,30.00,ESE,110,0.0,1.0,59,0.00,,---,0.00,VWS V13.01,2013-04-04 05:05:00,
2013-04-03 23:10:00,41.3,28.1,30.00,ESE,110,0.0,1.0,59,0.00,,---,0.00,VWS V13.01,2013-04-04 05:10:00,
2013-04-03 23:16:00,41.2,28.0,30.00,ESE,110,0.0,1.0,59,0.00,,---,0.00,VWS V13.01,2013-04-04 05:16:00,
2013-04-03 23:21:00,41.1,28.3,30.00,ESE,110,0.0,1.0,60,0.00,,---,0.00,VWS V13.01,2013-04-04 05:21:00,
2013-04-03 23:26:00,41.1,28.3,30.00,ESE,110,0.0,1.0,60,0.00,,---,0.00,VWS V13.01,2013-04-04 05:26:00,
2013-04-03 23:31:00,41.2,28.4,29.99,ESE,110,0.0,1.0,60,0.00,,---,0.00,VWS V13.01,2013-04-04 05:31:00,
2013-04-03 23:36:00,41.1,28.3,29.99,ESE,110,0.0,1.0,60,0.00,,---,0.00,VWS V13.01,2013-04-04 05:36:00,
2013-04-03 23:41:00,41.2,28.4,29.99,ESE,110,0.0,1.0,60,0.00,,---,0.00,VWS V13.01,2013-04-04 05:41:00,
2013-04-03 23:46:00,41.2,28.4,29.99,ESE,110,0.0,1.0,60,0.00,,---,0.00,VWS V13.01,2013-04-04 05:46:00,
2013-04-03 23:51:00,41.3,28.9,29.99,ESE,110,0.0,0.0,61,0.00,,---,0.00,VWS V13.01,2013-04-04 05:51:00,
2013-04-03 23:57:00,41.6,29.2,29.99,ESE,110,0.0,0.0,61,0.00,,---,0.00,VWS V13.01,2013-04-04 05:57:00,